EW4427 Weather Reports


Display with metric or nautical units.
time (UTC)temp
F
wind
direction
speed
MPH
gust
MPH
rain 1hr
in
rain 24hr
in
rain mn
in
humidity
%
barometer
mb
20260502214046 55 0 0.0 5.0 0.00 0.00 0.00 40 1015.2
20260502213547 55 195 2.0 5.0 0.00 0.00 0.00 42 1015.1
20260502213100 56 225 1.0 3.0 0.00 0.00 0.00 40 1015.2
20260502212547 57 0 0.0 3.0 0.00 0.00 0.00 41 1015.2
20260502212047 58 0 0.0 3.0 0.00 0.00 0.00 38 1015.3
20260502211606 58 0 0.0 3.0 0.00 0.00 0.00 40 1015.3
20260502211042 58 103 0.0 3.0 0.00 0.00 0.00 42 1015.5
20260502210542 57 192 0.0 3.0 0.00 0.00 0.00 42 1015.5
20260502210053 58 219 0.0 4.0 0.00 0.00 0.00 41 1015.5
20260502205546 59 0 0.0 4.0 0.00 0.01 0.00 44 1015.6
20260502205048 57 0 1.0 4.0 0.00 0.01 0.00 43 1015.6
20260502204555 58 188 0.0 8.0 0.00 0.01 0.00 42 1015.6
20260502204042 57 0 2.0 8.0 0.00 0.01 0.00 45 1015.7
20260502203542 56 227 2.0 7.0 0.00 0.01 0.00 46 1015.9
20260502203105 56 163 1.0 4.0 0.00 0.01 0.00 45 1016.0
20260502202542 57 0 0.0 4.0 0.00 0.01 0.00 41 1016.1
20260502202042 59 217 1.0 6.0 0.00 0.01 0.00 39 1016.0
20260502201605 58 0 0.0 6.0 0.00 0.01 0.00 49 1016.1
20260502201042 57 333 1.0 6.0 0.00 0.01 0.00 43 1016.1
20260502200545 56 24 0.0 4.0 0.00 0.01 0.00 42 1016.3
20260502200048 56 0 0.0 4.0 0.00 0.01 0.00 45 1016.4
20260502195543 56 184 0.0 4.0 0.00 0.01 0.00 41 1016.5
20260502195041 55 16 1.0 4.0 0.00 0.01 0.00 41 1016.6
20260502194554 55 10 0.0 4.0 0.00 0.01 0.00 42 1016.7
20260502194043 54 0 1.0 4.0 0.00 0.01 0.00 44 1016.7
20260502193543 55 204 1.0 5.0 0.00 0.01 0.00 40 1016.8
20260502193050 56 207 2.0 5.0 0.00 0.01 0.00 46 1017.0
20260502192543 56 209 2.0 4.0 0.00 0.01 0.00 48 1016.9
20260502192042 55 0 1.0 4.0 0.00 0.01 0.00 48 1017.1
20260502191554 55 0 0.0 2.0 0.00 0.01 0.00 45 1017.1
20260502191042 56 0 0.0 2.0 0.00 0.01 0.00 44 1017.1
20260502190542 55 0 0.0 4.0 0.00 0.01 0.00 44 1017.1
20260502190052 55 0 0.0 4.0 0.00 0.01 0.00 47 1017.2
20260502185542 55 336 0.0 7.0 0.00 0.01 0.00 41 1017.3
20260502185042 56 0 1.0 8.0 0.00 0.01 0.00 43 1017.3
20260502184548 57 0 1.0 8.0 0.00 0.01 0.00 40 1017.3
20260502184042 55 31 1.0 5.0 0.00 0.01 0.00 41 1017.3
20260502183542 55 171 1.0 4.0 0.00 0.01 0.00 47 1017.4
20260502183052 54 0 0.0 3.0 0.00 0.01 0.00 42 1017.5
20260502182542 55 139 0.0 5.0 0.00 0.01 0.00 42 1017.5
20260502182041 56 205 1.0 5.0 0.00 0.01 0.00 41 1017.5
20260502181551 57 342 1.0 4.0 0.00 0.01 0.00 39 1017.6
20260502181046 57 0 0.0 4.0 0.00 0.01 0.00 43 1017.7
20260502180541 56 109 0.0 4.0 0.00 0.01 0.00 46 1017.8
20260502164042 53 0 0.0 7.0 0.00 0.01 0.00 45 1018.6
20260502163542 53 0 1.0 8.0 0.00 0.01 0.00 47 1018.6
20260502163107 53 22 1.0 8.0 0.00 0.01 0.00 46 1018.5
20260502162544 53 5 0.0 5.0 0.00 0.01 0.00 47 1018.6
20260502162043 52 0 1.0 5.0 0.00 0.01 0.00 50 1018.6
20260502161554 54 178 0.0 5.0 0.00 0.01 0.00 52 1018.7
20260502161042 53 0 1.0 5.0 0.00 0.01 0.00 47 1018.8
20260502160544 52 40 1.0 4.0 0.00 0.01 0.00 49 1018.8
20260502152042 50 0 1.0 4.0 0.00 0.01 0.00 56 1018.9
20260502151556 51 355 0.0 4.0 0.00 0.01 0.00 54 1019.0
20260502151041 50 0 0.0 4.0 0.00 0.01 0.00 56 1018.9
20260502150541 50 0 0.0 8.0 0.00 0.01 0.00 57 1018.9
20260502130548 36 0 0.0 3.0 0.00 0.01 0.00 93 1019.4
20260502123545 33 0 0.0 1.0 0.00 0.01 0.00 92 1019.4
20260502123053 32 0 0.0 0.0 0.00 0.01 0.00 92 1019.4
20260502122545 32 0 0.0 0.0 0.00 0.01 0.00 91 1019.4
20260502122046 31 0 0.0 0.0 0.00 0.01 0.00 91 1019.3
20260502121554 31 0 0.0 0.0 0.00 0.01 0.00 91 1019.3
20260502121046 31 0 0.0 0.0 0.00 0.01 0.00 91 1019.3
20260502120545 30 0 0.0 0.0 0.00 0.01 0.00 90 1019.3
20260502120107 30 0 0.0 0.0 0.00 0.01 0.00 90 1019.2
20260502115548 30 0 0.0 0.0 0.00 0.01 0.00 90 1019.2
20260502115045 30 0 0.0 0.0 0.00 0.01 0.00 90 1019.1
20260502114625 30 0 0.0 0.0 0.00 0.01 0.00 89 1019.1
20260502114047 30 0 0.0 0.0 0.00 0.01 0.00 89 1019.0
20260502113547 29 0 0.0 0.0 0.00 0.01 0.00 89 1018.9
20260502113050 29 0 0.0 0.0 0.00 0.01 0.00 89 1019.0
20260502112546 29 0 0.0 1.0 0.00 0.01 0.00 89 1019.0
20260502112046 29 0 0.0 1.0 0.00 0.01 0.00 89 1019.0
20260502111549 29 0 0.0 0.0 0.00 0.01 0.00 88 1018.9
20260502111046 29 0 0.0 0.0 0.00 0.01 0.00 88 1018.9
20260502110546 29 0 0.0 0.0 0.00 0.01 0.00 88 1019.0
20260502110051 29 0 0.0 0.0 0.00 0.01 0.00 88 1018.9
20260502105549 29 0 0.0 0.0 0.00 0.01 0.00 88 1018.9
20260502105046 29 0 0.0 0.0 0.00 0.01 0.00 88 1018.9
20260502104557 29 0 0.0 0.0 0.00 0.01 0.00 88 1018.9
20260502104047 29 0 0.0 0.0 0.00 0.01 0.00 88 1018.9
20260502103548 29 0 0.0 0.0 0.00 0.01 0.00 88 1018.8
20260502103052 30 0 0.0 0.0 0.00 0.01 0.00 88 1018.8
20260502102547 30 0 0.0 0.0 0.00 0.01 0.00 88 1018.8
20260502102047 30 0 0.0 0.0 0.00 0.01 0.00 88 1018.7
20260502101611 30 0 0.0 0.0 0.00 0.01 0.00 88 1018.8
20260502101046 30 0 0.0 0.0 0.00 0.01 0.00 88 1018.8
20260502100547 30 0 0.0 0.0 0.00 0.01 0.00 88 1018.8
20260502100113 30 0 0.0 0.0 0.00 0.01 0.00 88 1018.8
20260502091046 30 0 0.0 0.0 0.00 0.01 0.00 87 1018.7
20260502090547 30 0 0.0 0.0 0.00 0.01 0.00 87 1018.6
20260502071047 31 0 0.0 0.0 0.00 0.01 0.00 86 1018.7
20260502070546 31 0 0.0 0.0 0.00 0.01 0.00 86 1018.8
20260502070104 31 0 0.0 0.0 0.00 0.01 0.00 86 1018.8
20260502065548 31 0 0.0 0.0 0.00 0.01 0.00 86 1018.8
20260502065043 31 0 0.0 0.0 0.00 0.01 0.00 86 1018.8
20260502064614 31 0 0.0 0.0 0.00 0.01 0.00 86 1018.9
20260502064043 31 0 0.0 0.0 0.00 0.01 0.00 86 1018.8
20260502063545 31 0 0.0 0.0 0.00 0.01 0.00 86 1018.8
20260502063113 32 0 0.0 0.0 0.00 0.01 0.00 86 1018.8
20260502062546 32 0 0.0 0.0 0.00 0.01 0.00 85 1018.9
20260502062047 32 0 0.0 0.0 0.00 0.01 0.00 85 1018.9
20260502061554 32 0 0.0 0.0 0.00 0.01 0.00 85 1018.9
20260502061047 32 0 0.0 0.0 0.00 0.01 0.00 85 1018.9
20260502060552 32 0 0.0 0.0 0.00 0.01 0.00 85 1018.9
20260502060056 32 0 0.0 0.0 0.00 0.01 0.00 85 1019.0
20260502055550 32 0 0.0 0.0 0.00 0.02 0.00 84 1018.9
20260502055046 32 0 0.0 0.0 0.00 0.02 0.00 84 1019.2
20260502054555 32 0 0.0 0.0 0.00 0.02 0.00 84 1019.1
20260502054047 32 0 0.0 0.0 0.00 0.02 0.00 84 1019.0
20260502053546 32 0 0.0 0.0 0.00 0.02 0.00 83 1019.1
20260502053057 32 0 0.0 0.0 0.00 0.02 0.00 83 1019.0
20260502052546 32 0 0.0 0.0 0.00 0.02 0.00 83 1018.9
20260502052048 32 0 0.0 0.0 0.00 0.02 0.00 83 1019.1
20260502051551 32 0 0.0 0.0 0.00 0.02 0.00 83 1019.0
20260502051046 32 0 0.0 1.0 0.00 0.02 0.00 82 1019.1
20260502050542 33 0 0.0 1.0 0.00 0.02 0.00 82 1019.1
20260502050055 33 0 0.0 1.0 0.00 0.02 0.00 82 1019.1
20260502045546 33 0 0.0 0.0 0.00 0.04 0.02 82 1018.9
20260502045043 33 0 0.0 0.0 0.00 0.04 0.02 82 1019.0
20260502044556 33 0 0.0 0.0 0.00 0.04 0.02 82 1019.1
20260502044045 33 0 0.0 0.0 0.00 0.04 0.02 82 1019.0
20260502043545 33 0 0.0 0.0 0.00 0.04 0.02 82 1019.0
20260502043123 33 0 0.0 0.0 0.00 0.04 0.02 82 1018.9
20260502042545 33 0 0.0 0.0 0.00 0.04 0.02 81 1018.9
20260502042047 33 0 0.0 0.0 0.00 0.04 0.02 81 1018.9
20260502041601 34 0 0.0 0.0 0.00 0.04 0.02 81 1018.9
20260502041052 34 0 0.0 0.0 0.00 0.04 0.02 81 1018.9
20260502040546 34 0 0.0 0.0 0.00 0.04 0.02 80 1018.9
20260502040056 34 0 0.0 0.0 0.00 0.04 0.02 80 1018.9
20260502035546 34 0 0.0 0.0 0.00 0.05 0.02 80 1018.8
20260502035046 34 0 0.0 0.0 0.00 0.05 0.02 80 1018.9
20260502034553 34 0 0.0 0.0 0.00 0.05 0.02 79 1018.8
20260502034047 34 0 0.0 0.0 0.00 0.05 0.02 78 1018.8
20260502033542 35 0 0.0 0.0 0.00 0.05 0.02 78 1018.7
20260502033051 35 0 0.0 0.0 0.00 0.05 0.02 77 1018.7
20260502032545 35 0 0.0 0.0 0.00 0.05 0.02 77 1018.7
20260502032046 35 0 0.0 0.0 0.00 0.05 0.02 76 1018.7
20260502031554 35 0 0.0 0.0 0.00 0.05 0.02 76 1018.7
20260502031045 35 0 0.0 0.0 0.00 0.05 0.02 76 1018.7
20260502030547 36 0 0.0 0.0 0.00 0.05 0.02 76 1018.7
20260502030058 36 0 0.0 0.0 0.00 0.05 0.02 76 1018.7
20260502025546 36 0 0.0 0.0 0.00 0.05 0.02 75 1018.7
20260502025046 36 0 0.0 0.0 0.00 0.05 0.02 75 1018.7
20260502024551 36 0 0.0 0.0 0.00 0.05 0.02 75 1018.7
20260502024047 37 0 0.0 0.0 0.00 0.05 0.02 74 1018.7
20260502023549 37 0 0.0 0.0 0.00 0.05 0.02 74 1018.6
20260502023055 37 0 0.0 0.0 0.00 0.05 0.02 73 1018.5
20260502022547 37 0 0.0 0.0 0.00 0.05 0.02 73 1018.5
20260502022045 37 0 0.0 1.0 0.00 0.05 0.02 73 1018.6
20260502021559 37 0 0.0 1.0 0.00 0.05 0.02 72 1018.5
20260502021045 37 0 0.0 2.0 0.00 0.05 0.02 72 1018.5
20260502020550 38 0 0.0 2.0 0.00 0.05 0.02 72 1018.5
20260502020051 38 0 0.0 3.0 0.00 0.05 0.02 71 1018.4
20260502015543 38 0 0.0 3.0 0.00 0.05 0.02 70 1018.4
20260502015044 38 0 0.0 0.0 0.00 0.05 0.02 69 1018.4
20260502014553 38 0 0.0 0.0 0.00 0.05 0.02 69 1018.3
20260502014045 38 0 0.0 0.0 0.00 0.05 0.02 69 1018.2
20260502013543 38 0 0.0 0.0 0.00 0.05 0.02 69 1018.2
20260502013057 39 0 0.0 0.0 0.00 0.05 0.02 69 1018.2
20260502012548 39 0 0.0 0.0 0.00 0.05 0.02 69 1018.2
20260502012048 39 0 0.0 2.0 0.00 0.05 0.02 69 1018.2
20260502011558 39 0 0.0 2.0 0.00 0.05 0.02 69 1018.1
20260502011046 39 0 0.0 2.0 0.00 0.05 0.02 69 1018.1
20260502010546 39 0 0.0 2.0 0.00 0.05 0.02 68 1018.1
20260502010104 39 0 0.0 2.0 0.00 0.05 0.02 67 1018.0
20260502005544 39 0 0.0 2.0 0.00 0.05 0.02 67 1018.1
20260502005043 40 0 0.0 0.0 0.00 0.05 0.02 67 1018.0
20260502004549 40 0 0.0 3.0 0.00 0.05 0.02 67 1018.1
20260502004047 40 0 0.0 3.0 0.00 0.05 0.02 67 1018.1
20260502003546 40 0 1.0 3.0 0.00 0.05 0.02 68 1018.0
20260502003053 40 0 0.0 2.0 0.00 0.05 0.02 67 1018.1
20260502002542 40 0 0.0 1.0 0.00 0.05 0.02 66 1018.0
20260502002047 40 0 0.0 1.0 0.00 0.05 0.02 66 1017.9
20260502001553 40 0 0.0 1.0 0.00 0.05 0.02 65 1017.9
20260502001046 40 0 0.0 0.0 0.00 0.05 0.02 65 1017.9
20260502000546 40 0 0.0 0.0 0.00 0.05 0.02 64 1018.0
20260502000054 40 0 0.0 2.0 0.00 0.05 0.02 64 1017.9
20260501235550 40 0 0.0 2.0 0.00 0.05 0.02 64 1018.0
20260501235046 40 0 0.0 2.0 0.00 0.05 0.02 65 1018.0
20260501234556 41 0 0.0 1.0 0.00 0.05 0.02 65 1017.9
20260501234045 40 0 0.0 2.0 0.00 0.05 0.02 67 1017.9
20260501233546 40 0 0.0 2.0 0.00 0.05 0.02 65 1017.9
20260501233104 40 0 0.0 2.0 0.00 0.05 0.02 67 1017.9
20260501232543 40 0 0.0 4.0 0.00 0.05 0.02 66 1017.9
20260501232045 40 0 0.0 4.0 0.00 0.05 0.02 65 1017.9
20260501231609 40 41 0.0 4.0 0.00 0.05 0.02 67 1018.0
20260501231048 40 0 0.0 4.0 0.00 0.05 0.02 68 1017.9
20260501230543 40 144 1.0 4.0 0.00 0.05 0.02 69 1017.9
20260501230108 40 0 1.0 5.0 0.00 0.05 0.02 65 1018.1
20260501225547 40 65 0.0 5.0 0.00 0.05 0.02 67 1018.1
20260501225047 41 0 2.0 5.0 0.00 0.05 0.02 67 1018.1
20260501224605 41 128 1.0 5.0 0.00 0.05 0.02 68 1018.1
20260501224046 40 14 0.0 5.0 0.00 0.05 0.02 69 1018.2
20260501223553 40 342 0.0 5.0 0.00 0.05 0.02 70 1018.1
20260501223100 40 43 0.0 5.0 0.00 0.05 0.02 70 1018.1
20260501222547 40 37 0.0 4.0 0.00 0.05 0.02 70 1018.1
20260501222047 40 18 1.0 7.0 0.00 0.05 0.02 72 1018.1
20260501221554 40 0 2.0 7.0 0.00 0.05 0.02 73 1018.0
20260501221047 40 0 1.0 7.0 0.00 0.05 0.02 74 1018.0
20260501220543 40 26 2.0 10.0 0.00 0.05 0.02 71 1018.1
20260501220107 40 34 2.0 10.0 0.00 0.05 0.02 73 1018.1
20260501215544 41 51 2.0 8.0 0.00 0.06 0.02 73 1018.0
20260501215049 41 80 0.0 4.0 0.00 0.06 0.02 74 1017.8
20260501214553 41 0 1.0 4.0 0.01 0.06 0.02 75 1017.7